Weather History for Cahokia, IL

Change the Weather History Date:

Friday, January 25, 2013

  Actual Average Record
Temperature  
Mean Temperature 35 °F -  
Max Temperature 43 °F 41 °F 75 °F (1950)
Min Temperature 27 °F 25 °F 2 °F (1961)
Degree Days  
Heating Degree Days 30    
Moisture  
Dew Point 16 °F    
Average Humidity 47    
Maximum Humidity 56    
Minimum Humidity 40    
Precipitation  
Precipitation 0.00 in - - ()
Sea Level Pressure  
Sea Level Pressure 30.18 in    
Wind  
Wind Speed 6 mph (West)    
Max Wind Speed 14 mph    
Max Gust Speed 18 mph    
Visibility 10 miles    
Events      
Averages and records for this station are not official NWS values.
T = Trace of Precipitation, MM = Missing Value Source: NWS Daily Summary

Daily Weather History Graph

Daily Weather History Graph

Search for Another Location

Airport:

Trip Planner

Search our weather history database for the weather conditions in past years. The results will help you decide how hot, cold, wet, or windy it might be!

Date:

Astronomy

Jan. 25, 2013 Rise Set
Actual Time 7:11 AM CST 5:15 PM CST
Civil Twilight 6:43 AM CST 5:43 PM CST
Nautical Twilight 6:10 AM CST 6:15 PM CST
Astronomical Twilight 5:39 AM CST 6:46 PM CST
Moon 4:12 PM CST (1/25) 5:51 AM CST (1/25)
Length of Visible Light 11h 00m
Length of Day
10h 03m
Waxing Gibbous, 98% of the Moon is Illuminated
Jan 25
Waxing Gibbous
Jan 26
Full
Feb 3
Last Quarter
Feb 10
New
Feb 17
First Quarter

Hourly Weather History & Observations

Time (CST) Temp. Windchill Dew Point Humidity Pressure Visibility Wind Dir Wind Speed Gust Speed Precip Events Conditions
12:53 AM 28.0 °F 20.8 °F 8.1 °F 43% 30.28 in 10.0 mi East 6.9 mph - N/A   Overcast
1:53 AM 28.0 °F 19.3 °F 8.1 °F 43% 30.22 in 10.0 mi SE 9.2 mph - N/A   Overcast
2:53 AM 28.0 °F 20.8 °F 8.1 °F 43% 30.20 in 10.0 mi SSE 6.9 mph - N/A   Overcast
3:53 AM 28.0 °F - 7.0 °F 41% 30.20 in 10.0 mi Calm Calm - N/A   Overcast
4:29 AM 28.4 °F - 10.4 °F 47% 30.18 in 10.0 mi Calm Calm - N/A   Overcast
4:53 AM 27.0 °F 20.5 °F 10.9 °F 51% 30.16 in 10.0 mi SSE 5.8 mph - N/A   Overcast
5:53 AM 27.0 °F - 12.9 °F 56% 30.17 in 10.0 mi Calm Calm - N/A   Overcast
6:53 AM 28.0 °F - 10.9 °F 49% 30.16 in 10.0 mi Calm Calm - N/A   Overcast
7:53 AM 28.0 °F - 12.0 °F 51% 30.19 in 10.0 mi Calm Calm - N/A   Overcast
8:00 AM 28.4 °F - 10.4 °F 47% 30.17 in 10.0 mi Calm Calm - N/A   Overcast
8:53 AM 30.0 °F 25.2 °F 12.9 °F 49% 30.19 in 10.0 mi West 4.6 mph - N/A   Overcast
9:53 AM 33.1 °F 24.9 °F 18.0 °F 54% 30.20 in 10.0 mi WNW 10.4 mph - N/A   Overcast
10:39 AM 33.8 °F 25.3 °F 17.6 °F 52% 30.17 in 10.0 mi WNW 11.5 mph - N/A   Overcast
10:53 AM 35.1 °F 26.4 °F 19.0 °F 52% 30.19 in 10.0 mi WNW 12.7 mph 18.4 mph N/A   Overcast
11:50 AM 37.4 °F 30.3 °F 19.4 °F 48% 30.15 in 10.0 mi West 10.4 mph - N/A   Scattered Clouds
11:53 AM 37.0 °F 30.4 °F 19.0 °F 48% 30.16 in 10.0 mi West 9.2 mph - N/A   Partly Cloudy
12:53 PM 39.9 °F 32.1 °F 19.0 °F 43% 30.14 in 10.0 mi WNW 13.8 mph 18.4 mph N/A   Clear
1:53 PM 42.1 °F 35.7 °F 19.9 °F 41% 30.14 in 10.0 mi West 11.5 mph - N/A   Clear
2:53 PM 43.0 °F 38.2 °F 19.9 °F 40% 30.13 in 10.0 mi West 8.1 mph - N/A   Clear
3:53 PM 43.0 °F 37.7 °F 19.9 °F 40% 30.13 in 10.0 mi West 9.2 mph - N/A   Clear
4:53 PM 41.0 °F 35.8 °F 19.9 °F 43% 30.14 in 10.0 mi West 8.1 mph - N/A   Clear
5:53 PM 39.0 °F 35.7 °F 19.0 °F 45% 30.16 in 10.0 mi West 4.6 mph - N/A   Clear
6:53 PM 37.9 °F 34.4 °F 19.0 °F 47% 30.17 in 10.0 mi West 4.6 mph - N/A   Clear
7:53 PM 37.0 °F 32.4 °F 19.0 °F 48% 30.17 in 10.0 mi West 5.8 mph - N/A   Clear
8:53 PM 37.0 °F 31.6 °F 19.0 °F 48% 30.19 in 10.0 mi West 6.9 mph - N/A   Clear
9:53 PM 37.0 °F 32.4 °F 19.0 °F 48% 30.21 in 10.0 mi West 5.8 mph - N/A   Clear
10:53 PM 36.0 °F 31.1 °F 19.0 °F 50% 30.23 in 10.0 mi WNW 5.8 mph - N/A   Clear
11:53 PM 36.0 °F 32.1 °F 19.0 °F 50% 30.25 in 10.0 mi West 4.6 mph - N/A   Clear